La Paz, Mexico

4:46 PM MDT on July 26, 2016 (GMT -0600)
Gen Manuel Marquez De Leon

Weather History for MMLP - December, 2012

Change the Weather History Date:

Saturday, December 29, 2012

  Actual Average Record
Temperature  
Mean Temperature 66 °F -  
Max Temperature 73 °F 75 °F 83 °F (2013)
Min Temperature 60 °F 52 °F 44 °F (2011)
Cooling Degree Days 2    
Growing Degree Days 16 (Base 50)    
Moisture  
Dew Point 53 °F    
Average Humidity 59    
Maximum Humidity 73    
Minimum Humidity 52    
Precipitation  
Precipitation 0.00 in - - ()
Sea Level Pressure  
Sea Level Pressure 30.01 in    
Wind  
Wind Speed 7 mph ()    
Max Wind Speed 15 mph    
Max Gust Speed -    
Visibility 11.0 miles    
Events      
Averages and records for this station are not official NWS values.
T = Trace of Precipitation, MM = Missing Value Source: Averaged Metar Reports

Daily Weather History Graph

Daily Weather History Graph

Search for Another Location

Airport or City:

Trip Planner

Search our weather history database for the weather conditions in past years. The results will help you decide how hot, cold, wet, or windy it might be!

Date:

Astronomy

Dec. 29, 2012 Rise Set
Actual Time 7:03 AM MST 5:43 PM MST
Civil Twilight 6:39 AM MST 6:08 PM MST
Nautical Twilight 6:10 AM MST 6:36 PM MST
Astronomical Twilight 5:42 AM MST 7:04 PM MST
Moon 7:08 PM MST (12/29) 7:48 AM MST (12/29)
Length of Visible Light 11h 29m
Length of Day
10h 40m
Full, 98% of the Moon is Illuminated
Dec 29
Full
Jan 4
Last Quarter
Jan 11
New
Jan 18
First Quarter
Jan 26
Full

Hourly Weather History & Observations

Time (MST) Temp. Dew Point Humidity Pressure Visibility Wind Dir Wind Speed Gust Speed Precip Events Conditions
5:43 AM 64.4 °F 50.0 °F 59% 30.02 in 10.0 mi NNE 4.6 mph - N/A   Overcast
6:46 AM 62.6 °F 50.0 °F 63% 30.01 in 10.0 mi NE 5.8 mph - N/A   Mostly Cloudy
7:40 AM 65 °F 58 °F 73% 30.06 in 16 mi NE 6.7 mph - -   Scattered Clouds
7:44 AM 64.4 °F 50.0 °F 59% 30.07 in 10.0 mi NNE 6.9 mph - N/A   Overcast
8:52 AM 66.2 °F 51.8 °F 60% 30.05 in 10.0 mi North 11.5 mph - N/A   Overcast
9:44 AM 68.0 °F 53.6 °F 60% 30.06 in 10.0 mi North 10.4 mph - N/A   Overcast
10:48 AM 69.8 °F 51.8 °F 53% 30.09 in 10.0 mi NNW 13.8 mph - N/A   Overcast
10:50 AM 71 °F 59 °F 56% 30.05 in 19 mi North 6.7 mph - -   Scattered Clouds
11:43 AM 69.8 °F 51.8 °F 53% 30.03 in 10.0 mi North 13.8 mph - N/A   Overcast
12:52 PM 69.8 °F 51.8 °F 53% 30.00 in 10.0 mi North 15.0 mph - N/A   Overcast
1:50 PM 72 °F 58 °F 52% 29.97 in 19 mi North 6.7 mph - -   Mostly Cloudy
1:56 PM 69.8 °F 51.8 °F 53% 30.02 in 10.0 mi North 9.2 mph - N/A   Overcast
2:48 PM 69.8 °F 51.8 °F 53% 29.95 in 10.0 mi North 11.5 mph - N/A   Overcast
3:53 PM 69.8 °F 51.8 °F 53% 29.95 in 10.0 mi North 11.5 mph - N/A   Overcast
4:44 PM 68.0 °F 51.8 °F 56% 30.00 in 10.0 mi North 12.7 mph - N/A   Overcast
4:45 PM 69 °F 57 °F 57% 29.93 in 16 mi North 6.7 mph - -   Mostly Cloudy
5:41 PM 68.0 °F 53.6 °F 60% 29.95 in 10.0 mi NNE 10.4 mph - N/A   Overcast
6:40 PM 66.2 °F 51.8 °F 60% 29.97 in 10.0 mi NNE 9.2 mph - N/A   Overcast
7:41 PM 66.2 °F 51.8 °F 60% 30.03 in 10.0 mi NNE 3.5 mph - N/A   Overcast
7:45 PM 67 °F 58 °F 66% 29.95 in 2 mi North 4.5 mph - -   Mostly Cloudy
8:40 PM 64.4 °F 51.8 °F 64% 29.98 in 10.0 mi North 3.5 mph - N/A   Mostly Cloudy
9:50 PM 60.8 °F 51.8 °F 72% 30.00 in 10.0 mi Calm Calm - N/A   Mostly Cloudy
10:43 PM 60.8 °F 51.8 °F 72% 30.05 in 10.0 mi Calm Calm - N/A   Mostly Cloudy